Regional Weather Roundup
Issued by NWS Northern Indiana

Home | Current Version | Previous Version | Graphics & Text | Print | Product List | Glossary On
Versions: 1 2 3 4 5 6 7 8 9 10 11 12 13 14 15 16 17 18 19 20 21 22 23 24 25 26 27 28 29 30 31 32 33 34 35 36 37 38 39 40 41 42 43 44 45 46 47 48 49 50
000
ASUS43 KIWX 271900
RWRIWX

KIWX WEATHER ROUNDUP
NATIONAL WEATHER SERVICE NORTHERN INDIANA
200 PM EST SAT DEC 27 2014

NOTE: "FAIR" INDICATES FEW OR NO CLOUDS BELOW 12,000 FEET WITH NO
SIGNIFICANT WEATHER AND/OR OBSTRUCTIONS TO VISIBILITY.

* THESE STATIONS ARE NOT UNDER NWS QUALITY CONTROL. THEY ALSO MAY NOT
  REPORT WEATHER SUCH AS PRECIPITATION OR FOG.

INZ001>027-272000-
NORTHERN INDIANA

CITY           SKY/WX    TMP DP  RH WIND       PRES   REMARKS
GARY*          CLOUDY    45  39  81 W26G39    29.99R HAZE
KNOX*          CLOUDY    47  43  87 SW18      29.98F
SOUTH BEND     CLOUDY    48  46  93 SW17G23   29.97F FOG
GOSHEN         CLOUDY    47  45  93 SW17G23   29.99F FOG
ANGOLA*        CLOUDY    45  45 100 SW10      29.98S
FORT WAYNE     CLOUDY    46  43  89 SW17      30.02F
PERU/GRISSOM   CLOUDY    47  47 100 SW18      30.02F

$$
INZ028>050-272000-
CENTRAL INDIANA

CITY           SKY/WX    TMP DP  RH WIND       PRES   REMARKS
LAFAYETTE      CLOUDY    46  45  96 SW8       30.03F
KOKOMO*        CLOUDY    46  43  87 SW17G25   30.04F
MUNCIE*        CLOUDY    47  44  90 SW9G23    30.04F
INDIANAPOLIS   CLOUDY    46  44  93 SW9       30.06F

$$
MIZ043>046-050>051-056>058-064>065-071>073-077>080-272000-
SOUTHWEST LOWER MICHIGAN

CITY           SKY/WX    TMP DP  RH WIND       PRES   REMARKS
BATTLE CREEK   CLOUDY    48  45  89 SW21      29.94F
BENTON HARBOR  CLOUDY    48  46  93 SW17G26   29.91F
COLDWATER*     CLOUDY    46  45  97 SW18G25   29.96S FOG
HILLSDALE*     CLOUDY    46  46 100 SW9G22    29.96F FOG
HOLLAND        CLOUDY    49  45  86 SW28G38   29.89F
GRAND RAPIDS   CLOUDY    48  44  86 SW16G30   29.88F
KALAMAZOO      CLOUDY    48  45  89 SW14G24   29.94F FOG
STURGIS*       CLOUDY    46  45  93 SW17G24   29.96F FOG
THREE RIVERS*  CLOUDY    47  45  93 SW13G20   29.96F FOG

$$
OHZ001>008-015>018-024>025-272000-
NORTHWEST OHIO

CITY           SKY/WX    TMP DP  RH WIND       PRES   REMARKS
DEFIANCE       CLOUDY    47  44  90 SW18G25   30.02S
FINDLAY        CLOUDY    50  43  77 SW15G25   30.02F
TOLEDO EXPRESS CLOUDY    48  43  82 SW15G23   29.99F
TOLEDO METCALF CLOUDY    49  43  80 SW21G29   30.00F
LIMA           CLOUDY    50  43  77 SW17      30.04F

$$
AND FOR LAKE MICHIGAN COASTAL AND OPEN LAKE BUOY OBSERVATIONS

STATION/POSITION TEMP    WIND        PRES    VSBY  WAVE
                 AIR SEA DIR/SP/G                  HT/PER
                 (F)     (DEG/KT/KT) (MB)    (MI)  (FT/S)
CALUMET HARBOR    42     230/ 13/ 20 1013.8S
MICHIGAN CITY     47     180/ 22/ 30   N/A
SAINT JOSEPH      45     180/ 15     1013.9F

$$
&&


USA.gov is the U.S. government's official web portal to all federal, state and local government web resources and services.